Theta_e
346 346 345 344 345 343 344 343 342 343 344 344 340 339 341 341 339 336 331 332 331 328 326 326 328 327 324 323 322 324 328 328 329 330 330 330 328 326 326 326 324 324 325
344 345 345 346 345 343 340 345 342 344 342 340 340 341 340 341 341 338 334 329 333 333 330 328 326 328 328 325 327 325 325 326 326 327 329 333 334 333 330 327 327 324 324
347 345 345 348 345 343 343 343 343 343 340 341 340 340 341 340 339 339 339 335 331 332 335 335 334 333 333 330 328 330 328 326 325 325 325 325 326 330 329 332 330 328 325
344 343 346 348 345 342 344 339 339 341 342 340 340 340 340 339 337 340 341 339 336 336 334 334 335 336 335 336 337 336 335 335 332 331 328 326 325 325 334 332 328 329 328
340 341 346 348 348 344 344 339 339 340 340 341 340 338 338 339 337 339 340 338 339 339 340 335 334 334 333 333 335 337 336 335 335 334 335 336 336 332 331 333 333 334 334
344 341 344 345 345 344 344 342 343 342 342 340 339 335 335 339 340 338 340 338 339 339 340 338 338 335 334 335 335 335 334 334 330 330 332 335 335 338 338 338 337 337 338
345 346 342 346 346 344 344 342 344 344 342 337 337 337 337 338 339 339 339 340 338 337 335 336 339 340 338 339 339 335 334 336 335 333 333 333 332 334 335 336 337 337 336
344 347 346 343 347 348 347 343 345 344 341 338 338 336 337 338 339 339 338 336 338 338 335 333 334 336 338 336 332 333 328 329 330 331 329 331 333 332 332 327 320 318 317
344 347 346 344 346 347 345 346 343 342 343 334 336 337 336 338 340 339 339 338 339 338 336 335 336 332 333 331 330 326 323 320 322 324 328 329 325 320 320 321 320 319 319
343 347 346 345 345 348 346 346 348 343 344 335 337 337 337 337 338 340 339 339 338 337 337 336 336 337 336 334 331 326 325 320 319 320 320 320 323 325 325 324 321 320 319
343 343 344 346 347 347 347 346 348 341 343 337 335 336 340 340 337 339 338 337 337 337 338 337 337 338 338 337 335 331 329 326 323 322 323 326 328 328 327 326 326 326 326
342 341 343 346 347 347 347 344 346 347 341 344 342 338 335 342 339 338 338 338 337 338 339 338 338 339 339 339 337 336 335 336 332 328 328 328 329 329 328 327 327 327 327
341 341 343 346 348 349 347 347 345 348 341 343 344 341 333 337 339 340 339 339 338 339 339 339 339 339 339 339 339 338 336 336 336 336 332 330 329 329 329 328 328 327 326
343 343 344 346 347 350 350 348 347 343 349 346 341 341 340 337 335 337 338 338 338 338 338 339 339 340 340 340 339 339 338 336 336 336 336 335 333 330 329 329 328 327 326
341 343 344 345 346 349 350 349 345 344 345 348 344 342 342 339 336 335 335 338 337 337 338 338 338 337 338 340 339 338 338 336 336 336 335 334 333 332 332 331 329 327 326
338 340 343 345 346 347 350 350 349 347 344 341 343 341 337 340 340 336 336 337 337 337 337 336 336 337 337 338 339 339 338 337 337 336 335 334 331 331 330 330 330 326 327
334 340 342 343 347 348 351 352 351 349 348 345 340 344 341 337 333 333 334 336 337 337 336 333 334 334 336 336 337 338 338 337 336 336 335 335 334 332 333 331 328 327 329
333 336 340 343 344 348 353 352 352 352 349 348 341 339 342 341 334 330 328 332 335 336 337 335 332 331 334 334 335 336 337 337 337 336 335 335 335 332 331 332 333 330 329
333 333 337 340 342 342 348 352 351 351 350 349 348 340 332 337 340 337 335 331 329 331 335 336 332 331 332 334 335 334 335 337 337 337 336 336 335 334 334 334 335 333 331
335 332 332 334 337 339 343 348 348 349 347 348 347 344 341 333 331 332 333 336 338 339 337 335 334 333 332 332 334 335 335 334 336 338 337 336 336 335 334 332 334 335 333
334 332 330 330 332 333 336 340 346 346 347 347 345 343 343 343 342 340 336 332 331 334 339 343 344 342 343 342 339 335 335 335 335 336 337 337 337 336 336 334 334 335 333
335 336 333 330 330 332 332 332 335 343 346 347 345 343 343 343 344 344 344 344 344 343 341 341 341 342 339 340 342 344 344 339 338 336 338 338 338 337 337 334 335 336 332
336 336 335 336 334 331 331 332 332 334 338 342 343 342 343 342 343 343 344 345 346 347 347 348 348 347 347 347 349 350 350 349 347 345 339 338 338 338 337 334 332 335 332
340 339 338 337 336 334 332 331 332 335 337 338 339 340 341 342 343 343 345 347 346 346 350 351 352 352 354 355 355 355 354 350 346 343 341 339 338 338 337 331 332 336 332
346 348 349 347 346 344 342 341 340 341 341 341 343 344 344 343 343 347 349 350 350 352 353 354 355 355 356 355 354 354 352 347 345 344 341 339 336 336 332 331 335 333 331
350 351 352 353 353 353 353 353 352 351 350 351 350 350 349 349 351 353 354 355 355 356 357 357 356 356 356 355 355 354 354 351 347 342 340 339 336 336 332 332 333 331 331
Wind_Speed
3 6 4 4 6 5 8 8 10 8 6 6 6 7 7 6 5 7 5 5 5 4 5 5 5 4 4 5 5 5 5 4 4 3 2 2 2 3 3 4 4 5 5
2 4 4 4 5 7 6 9 8 8 8 8 6 4 6 6 3 5 5 5 4 2 3 4 4 4 4 4 4 4 4 4 4 3 3 4 4 4 4 4 5 6 6
1 2 3 5 4 9 9 7 6 7 9 6 4 6 4 5 4 5 4 5 4 3 2 2 2 3 4 3 3 3 2 3 3 3 4 4 5 5 5 6 7 8 8
3 2 5 3 4 6 5 4 8 7 5 4 2 1 1 3 4 4 4 3 3 3 2 1 2 3 3 4 4 4 5 6 6 5 5 5 5 5 6 7 8 7 8
2 2 3 2 3 4 4 5 6 5 4 2 3 2 3 2 3 2 2 3 2 2 2 1 1 2 2 2 4 5 5 7 7 8 8 7 8 8 8 8 9 9 10
2 3 3 3 5 6 5 5 5 4 2 3 3 3 4 3 3 2 3 3 2 2 1 1 2 1 1 3 3 4 4 5 6 7 7 7 8 9 9 9 10 11 11
7 4 7 6 8 7 6 5 6 4 4 2 9 4 4 6 7 4 5 6 3 1 2 2 1 2 1 3 4 4 4 4 5 6 6 7 7 7 6 8 8 9 10
11 9 7 12 9 10 9 6 8 7 6 6 11 7 5 4 7 9 7 6 7 5 1 2 2 4 5 5 4 4 6 6 6 6 6 5 5 5 5 5 6 6 7
14 12 7 10 12 11 10 9 6 8 7 7 7 5 6 4 8 8 11 9 7 8 5 1 2 3 2 2 4 4 5 4 4 4 3 3 2 2 3 4 4 4 5
17 14 10 9 13 12 12 9 6 9 9 12 10 6 7 6 8 7 10 11 9 8 8 5 4 3 4 3 3 3 4 3 2 2 2 3 3 1 1 0 2 3 4
20 17 14 10 12 13 10 10 10 8 13 14 15 12 10 9 13 10 9 12 13 11 9 8 7 6 5 4 3 1 1 2 0 2 3 3 3 1 0 1 2 2 3
26 21 17 15 12 13 13 11 11 11 14 16 12 13 16 13 15 14 12 12 13 11 10 11 11 10 9 7 5 3 1 1 2 2 3 4 4 4 3 3 4 5 6
26 24 20 18 18 13 13 13 15 14 14 15 15 15 15 17 14 15 15 11 12 12 15 15 14 12 14 13 10 8 7 6 5 5 6 7 7 7 7 7 7 7 8
25 21 21 19 19 18 14 15 15 18 17 16 17 18 17 18 18 19 18 16 17 17 17 17 16 16 16 14 14 14 12 10 10 9 10 10 11 11 10 10 10 10 10
25 23 21 21 19 18 18 16 17 17 19 18 18 20 21 19 19 19 20 18 17 20 23 21 20 16 16 16 16 17 16 13 13 12 13 14 14 14 14 13 11 10 10
27 27 25 23 22 20 20 20 19 18 19 21 20 20 22 23 24 23 23 22 21 22 27 25 23 20 17 17 19 21 20 18 17 17 17 16 16 16 16 16 14 12 11
30 29 27 25 23 21 21 24 24 23 22 21 23 24 24 22 24 26 26 27 27 26 28 26 25 24 27 26 23 22 23 23 22 22 21 20 19 20 20 17 15 13 13
33 31 31 28 27 25 23 22 24 28 27 25 23 27 28 26 25 24 25 28 30 29 30 32 29 27 27 27 28 29 27 26 27 25 23 23 23 22 21 20 18 16 15
36 34 33 33 32 30 30 29 27 28 29 27 23 24 28 30 30 28 28 29 31 32 34 36 37 35 32 31 32 32 33 33 32 30 28 25 25 24 20 21 23 21 16
37 38 36 36 36 34 32 30 30 28 27 26 25 25 23 26 30 32 33 33 34 34 35 38 41 42 41 38 38 39 39 37 37 36 36 32 28 25 25 26 25 22 25
37 37 37 39 39 39 39 36 34 34 33 31 30 29 28 28 27 27 30 32 35 36 38 40 42 44 44 44 45 45 45 43 42 41 40 37 35 30 29 26 31 28 26
36 36 37 38 40 41 40 40 40 39 37 36 36 35 35 35 34 33 33 34 36 38 39 42 44 45 46 46 44 44 45 47 49 47 46 46 42 37 32 25 30 36 25
36 36 36 36 38 40 41 41 41 42 44 44 42 41 41 40 38 38 38 39 41 42 43 43 48 50 49 48 47 47 47 47 49 47 41 43 46 44 33 28 26 31 22
37 36 36 37 37 37 37 38 39 41 43 44 43 42 42 42 41 40 40 41 42 41 39 38 41 45 44 43 45 47 50 50 48 47 46 49 45 50 40 43 34 31 24
36 33 32 34 36 35 32 32 32 35 38 39 39 40 40 40 39 38 39 41 42 43 41 38 36 34 33 33 36 43 52 50 52 54 50 47 29 36 33 33 24 20 19
32 31 31 30 29 28 26 26 28 31 35 37 37 38 39 40 39 38 39 39 41 39 35 35 34 31 29 28 31 33 40 49 51 39 37 43 29 21 18 25 20 21 23
Wind_Direction
162 194 135 106 135 116 126 151 164 157 144 109 118 115 117 123 121 89 81 120 124 141 145 156 155 156 163 174 177 180 186 193 201 208 225 255 269 300 326 326 325 325 330
195 164 139 131 121 145 127 152 155 152 146 125 118 147 128 128 141 129 86 95 112 140 146 162 160 165 179 184 190 198 205 219 226 232 250 257 276 287 305 314 320 319 319
236 187 176 172 125 136 136 130 151 139 149 146 124 99 129 135 127 139 105 81 75 130 156 199 191 187 201 224 213 220 241 260 266 273 272 279 281 282 290 308 317 323 330
250 272 163 176 150 135 123 121 127 141 144 137 121 158 112 124 135 161 131 115 84 81 65 24 244 231 234 233 252 256 261 266 274 274 280 286 289 284 291 305 316 322 325
276 247 182 217 180 188 166 137 125 125 148 242 230 175 209 153 129 135 129 140 135 67 38 18 266 213 225 232 249 260 265 268 269 272 280 282 282 283 289 299 302 308 308
241 221 239 256 204 191 190 176 177 182 202 194 235 155 184 188 211 203 178 146 95 142 206 303 343 203 238 267 268 272 275 282 281 281 285 289 287 287 288 288 292 298 303
237 235 228 223 200 191 211 198 210 189 193 206 166 179 175 223 212 221 231 220 211 176 7 268 263 213 319 291 300 302 284 292 286 287 289 286 284 293 297 306 315 320 320
233 239 257 231 224 228 228 232 226 215 223 225 197 191 194 185 206 226 239 225 222 230 317 53 291 261 278 284 291 313 287 280 281 283 288 288 282 297 315 324 326 335 337
228 231 252 227 226 229 222 225 218 213 219 192 176 206 196 196 208 224 236 233 231 238 254 296 20 41 13 291 319 331 338 303 281 268 258 255 275 315 340 347 353 356 359
227 226 238 234 233 224 221 229 232 224 219 208 205 219 224 225 204 224 238 235 242 245 251 277 322 357 15 25 356 358 342 326 284 225 193 172 162 146 75 21 45 38 22
230 230 232 242 242 234 235 222 237 228 212 209 227 234 229 235 222 233 241 246 254 258 262 271 285 293 305 347 346 110 350 11 355 194 191 184 178 209 242 358 8 13 4
230 230 228 239 246 238 230 229 235 233 219 219 225 229 230 232 229 234 253 268 263 276 275 276 272 279 278 277 289 274 266 298 298 261 253 254 259 276 284 298 316 326 330
221 226 227 233 240 241 235 235 234 230 228 228 230 233 233 231 243 246 252 264 271 278 287 272 271 271 275 276 283 287 276 272 273 270 271 272 268 274 282 291 300 309 319
222 221 224 234 241 245 243 239 241 233 235 236 238 236 240 236 245 239 250 260 269 271 279 281 274 274 274 274 274 270 271 270 272 269 270 269 265 265 271 282 293 305 315
224 225 225 234 242 247 246 243 243 243 237 240 246 242 239 241 245 244 245 254 260 269 276 282 286 285 274 271 272 270 270 271 269 266 264 263 262 261 261 262 264 274 295
228 229 227 231 239 243 243 244 247 249 246 244 246 247 243 244 247 247 250 255 262 270 275 276 280 285 282 281 274 269 267 267 265 263 261 259 258 255 254 258 262 264 278
230 227 228 229 231 237 244 247 250 251 253 253 246 246 249 250 249 249 248 251 255 262 269 278 280 279 278 280 276 271 265 262 262 261 262 261 261 260 256 257 254 254 270
232 230 230 233 232 234 237 244 252 251 251 255 254 250 250 250 250 250 252 254 256 259 266 274 276 275 276 280 277 274 270 263 264 265 266 264 262 263 258 253 254 251 258
234 232 232 233 236 238 240 246 251 251 249 252 259 260 254 254 255 254 255 258 260 262 264 269 276 279 278 277 276 274 270 267 263 263 263 261 260 259 250 254 254 250 252
240 236 234 235 237 240 243 246 247 247 249 252 256 261 264 261 260 261 261 263 265 266 268 270 274 277 278 278 276 273 271 269 267 262 260 260 262 256 247 244 254 247 245
242 242 239 239 240 240 241 243 244 247 252 255 258 262 264 267 269 269 269 270 270 271 271 273 274 277 278 278 276 279 275 274 270 266 263 262 258 249 248 244 264 247 246
242 242 242 240 240 242 243 245 245 248 253 256 260 264 266 268 269 272 272 273 276 277 277 277 279 280 283 283 285 284 283 276 271 274 263 257 254 248 244 271 277 241 231
242 243 245 245 244 244 245 246 249 251 254 258 261 264 266 268 270 272 274 275 275 275 276 279 282 283 286 290 292 290 287 282 277 279 266 261 254 247 239 272 295 267 231
246 248 248 249 249 250 250 249 251 253 254 258 262 265 267 269 271 274 277 279 281 281 281 281 279 283 286 290 291 292 289 286 280 273 268 256 246 237 228 264 290 243 208
249 250 251 251 252 253 254 255 254 254 256 259 262 266 268 272 274 275 279 282 285 287 292 291 292 293 295 296 293 288 280 277 278 279 272 252 215 209 239 262 247 208 201
251 253 255 256 258 259 258 257 256 258 261 263 266 267 268 272 277 281 284 285 287 291 300 305 305 303 301 300 300 297 298 282 276 273 261 224 212 217 254 260 229 199 189